Theta_e
304 304 303 307 309 304 302 305 304 302 303 302 303 304 307 311 314 315 315 315 315 315 315 315 316 316 317 319 321 321 321 321 320 319 319 319 321 321 321 323 324 325 325 325 325 326 327 327 327 327 326 326 326 326 326 326 326 326 326 326 326 326 326 325 324 322 322 322 321 318 313 312 315 317
304 304 303 305 307 304 302 303 303 303 303 302 304 304 304 306 309 312 314 314 314 314 314 315 315 316 317 318 318 316 315 314 312 310 310 309 310 310 310 311 313 317 321 323 324 324 325 326 326 326 326 326 326 326 326 326 326 326 326 326 326 326 326 325 325 323 322 322 322 320 316 312 313 316
305 305 304 304 305 303 303 304 304 303 303 303 305 307 309 309 308 308 311 312 312 313 314 314 313 313 313 313 312 311 309 307 306 305 304 304 305 305 305 305 305 306 310 314 317 320 322 323 324 325 325 325 325 325 325 326 326 326 326 326 326 326 326 326 325 324 323 322 322 321 319 314 313 315
305 305 304 304 304 303 304 305 305 304 304 304 303 305 309 311 310 310 311 312 311 311 312 312 311 311 311 311 312 311 309 309 309 307 304 305 305 304 304 307 307 307 306 306 308 310 314 318 321 322 323 323 324 325 325 325 326 326 326 326 326 326 326 326 326 326 324 323 322 322 321 319 316 314
304 304 305 305 305 304 303 304 305 307 308 307 306 307 309 310 311 311 311 312 312 311 311 312 312 312 312 311 310 310 311 311 310 308 306 305 305 305 305 307 309 310 310 310 310 309 308 310 315 319 320 321 323 324 325 325 325 325 325 325 325 326 326 326 326 326 326 325 323 322 321 321 320 316
305 304 304 306 305 304 303 302 303 306 308 307 307 308 309 309 309 309 310 310 310 311 310 310 310 310 311 311 310 310 311 311 309 307 306 305 306 308 310 311 312 313 313 314 316 316 312 308 309 312 316 318 320 322 324 325 325 324 324 324 324 324 325 326 326 326 326 326 324 323 322 322 322 319
308 305 304 305 304 303 303 302 302 304 305 305 307 308 308 308 308 309 309 309 309 309 309 308 309 309 310 310 310 310 310 310 309 308 308 307 307 308 310 312 313 313 313 314 315 316 314 310 307 307 308 311 314 318 321 323 324 324 324 324 324 324 324 324 325 326 326 326 326 325 323 322 322 321
306 305 304 305 305 304 303 302 303 305 306 306 307 307 306 307 307 308 309 309 309 310 310 309 309 309 309 308 309 309 309 309 309 309 309 309 308 308 310 310 311 312 313 314 315 315 315 313 310 307 305 305 307 310 313 317 320 321 322 321 321 322 322 322 323 324 326 327 326 325 324 323 322 322
305 304 304 304 304 303 302 301 302 304 304 302 302 303 304 306 306 306 306 306 307 308 308 309 308 308 308 308 309 309 308 308 309 309 309 309 309 309 309 307 306 307 309 311 312 314 313 312 310 307 305 305 304 304 306 309 313 315 316 317 317 318 320 320 321 322 324 326 327 326 326 324 323 322
305 304 304 303 303 303 302 301 301 301 300 299 299 300 301 301 302 303 303 304 305 306 306 307 307 307 307 308 308 308 308 309 309 309 309 309 308 308 309 309 309 310 311 311 312 313 313 314 313 310 307 307 305 304 304 305 307 310 311 313 314 315 317 320 321 321 323 325 326 326 326 325 324 323
305 305 303 303 303 303 302 301 300 299 298 297 297 297 297 298 299 301 302 304 306 306 306 307 307 307 307 307 307 308 308 308 308 308 309 309 310 310 311 312 312 311 311 311 311 311 312 314 313 311 308 307 307 306 304 305 306 308 310 312 313 313 315 319 321 322 323 324 325 326 326 325 324 324
305 305 304 303 303 303 302 301 299 298 298 297 296 295 295 296 297 297 299 301 304 306 306 307 306 307 307 307 308 308 308 308 309 309 309 311 311 311 310 310 308 307 307 307 308 309 311 313 314 314 312 310 308 306 305 306 308 311 314 314 314 314 315 317 320 322 324 325 326 325 325 325 325 324
305 304 304 303 303 303 302 300 299 298 297 296 295 295 294 294 295 296 297 299 302 304 305 306 306 306 307 307 307 308 308 308 309 309 310 310 309 309 309 309 309 308 308 308 308 309 311 312 314 316 316 315 314 312 310 308 308 312 316 317 317 317 319 320 320 322 324 325 326 326 325 325 325 324
304 304 303 303 302 302 302 300 300 299 297 295 295 294 294 294 294 295 296 297 299 301 302 304 304 305 305 305 306 307 307 307 308 308 308 308 308 308 309 309 309 309 309 309 310 311 312 313 314 316 316 317 317 317 316 314 310 309 313 318 319 319 320 320 320 320 322 324 325 326 325 325 325 325
304 303 303 302 302 301 300 300 299 299 297 296 295 295 295 295 295 295 295 295 296 297 298 300 301 303 304 304 305 305 306 306 307 307 307 307 308 308 308 309 309 309 309 310 311 312 312 314 314 315 315 317 318 318 319 318 315 310 310 315 320 320 319 319 318 318 319 321 323 324 325 325 325 325
303 303 302 301 301 299 298 298 296 296 296 296 296 296 295 295 294 295 295 295 295 295 296 297 298 300 301 302 304 304 305 306 306 306 307 307 307 307 307 307 307 308 308 309 309 309 309 310 311 312 312 314 316 317 318 319 318 316 312 313 316 319 320 319 318 317 317 317 320 322 324 325 325 325
303 303 302 301 299 298 297 296 295 295 296 296 296 295 295 295 295 295 296 296 296 296 296 296 297 297 298 299 300 301 303 304 304 305 305 305 305 305 305 306 306 306 307 308 308 308 307 307 308 309 311 312 314 315 317 318 319 318 317 315 314 316 318 319 319 318 318 317 317 320 323 325 326 325
303 303 301 299 298 297 296 295 296 296 296 295 295 294 295 296 296 297 297 297 297 297 297 297 297 297 297 298 298 298 299 301 301 302 303 303 303 304 304 304 304 304 305 304 304 305 304 304 305 306 307 310 312 313 315 317 317 318 317 316 314 314 316 318 319 319 319 319 319 320 323 325 325 324
302 301 300 299 297 296 296 296 296 295 294 294 294 294 295 296 296 297 297 298 298 298 298 298 299 299 299 299 299 299 299 299 299 300 300 301 301 302 302 302 302 302 303 302 302 302 302 303 303 303 305 308 309 310 312 315 316 316 315 314 314 314 315 317 319 319 319 320 320 321 323 324 324 324
301 300 299 298 298 297 297 297 296 294 294 294 294 295 295 296 296 296 297 297 297 298 298 298 298 298 298 298 299 299 299 299 299 299 299 299 299 299 300 301 301 302 302 302 302 303 303 303 304 304 305 307 309 310 311 312 314 315 315 314 314 314 314 316 318 318 319 319 320 321 321 322 322 323
300 300 299 298 298 297 297 297 295 294 294 295 295 295 296 295 295 296 296 297 297 297 297 297 297 297 297 297 297 297 298 298 298 298 298 298 298 298 299 300 300 301 302 302 303 303 303 304 305 305 306 307 308 310 310 311 313 314 315 315 315 314 314 315 316 316 316 317 318 319 320 320 321 321
300 300 299 298 297 297 297 296 295 295 295 295 295 295 295 295 295 295 295 296 296 297 297 297 297 297 296 296 296 297 297 297 297 297 297 297 297 297 298 298 299 300 301 302 302 303 304 304 305 305 306 307 308 309 310 310 311 313 314 314 315 315 315 314 315 315 315 315 315 317 319 320 321 320
300 300 299 298 297 296 296 296 296 296 296 296 295 295 294 294 294 294 295 295 295 296 296 297 297 297 296 296 296 296 296 296 296 296 296 296 296 296 296 297 298 299 300 301 301 302 303 304 304 305 305 307 308 309 310 311 311 313 314 313 314 314 313 313 312 313 315 315 314 314 316 318 320 321
299 298 298 297 297 297 297 296 296 296 296 295 294 294 294 294 294 293 294 294 295 295 295 295 295 296 296 296 296 296 296 296 296 296 296 295 295 296 296 296 297 298 299 299 301 302 302 303 304 304 305 306 307 308 310 311 312 313 312 312 312 312 311 310 310 310 312 315 314 313 314 316 318 320
296 296 297 297 297 297 297 296 296 296 295 294 294 294 294 294 293 293 293 293 293 292 292 293 293 293 293 294 294 294 295 295 295 295 296 295 295 296 296 296 296 297 297 298 299 300 301 301 303 303 304 305 306 307 308 311 312 312 312 312 311 311 310 309 309 309 310 312 313 313 314 315 317 319
294 295 296 297 297 297 296 296 295 294 293 293 293 293 293 293 293 293 292 292 291 291 291 291 291 292 292 292 293 294 294 295 295 295 295 296 296 296 296 296 296 296 297 297 297 298 299 300 301 302 303 304 305 306 308 310 311 311 311 310 310 309 309 309 309 309 310 311 312 313 314 315 316 318
294 295 296 297 297 296 295 295 294 293 293 293 293 293 293 293 293 292 292 291 291 290 290 290 290 291 291 292 293 293 294 294 294 295 295 295 295 296 296 296 296 296 296 297 297 297 298 299 300 300 301 302 303 304 306 308 309 310 309 309 309 309 308 308 309 310 310 311 312 313 314 315 315 316
294 294 295 295 295 295 295 294 294 294 294 294 293 293 293 292 292 291 291 290 290 290 290 290 291 291 291 292 292 292 293 294 294 294 295 295 295 295 295 295 295 296 296 296 296 297 297 298 299 299 300 301 301 302 303 305 307 308 308 308 308 309 309 308 308 309 310 310 311 313 313 314 314 313
293 294 294 295 295 295 295 294 294 294 294 293 292 292 292 292 291 291 291 291 291 291 291 291 291 291 291 292 292 292 293 293 294 294 294 294 295 295 295 295 295 296 296 296 296 296 296 297 298 298 299 300 300 301 302 303 304 306 306 307 307 308 308 307 307 308 309 310 310 312 312 313 312 310
293 293 294 294 294 294 294 293 293 293 292 292 291 291 291 291 292 292 292 292 292 292 292 292 292 292 292 292 292 292 293 293 293 294 294 294 294 295 295 295 295 295 295 296 296 296 296 296 297 297 298 299 299 300 301 302 303 305 306 306 307 308 308 307 307 308 309 309 309 310 310 310 309 307
293 293 294 294 294 294 293 293 293 292 292 292 292 292 292 292 292 292 292 292 292 292 292 292 292 292 292 292 292 293 293 293 293 293 293 294 294 294 294 294 295 295 295 295 295 296 296 296 296 297 297 298 298 299 300 301 302 303 305 305 306 307 307 307 308 308 309 308 308 308 308 307 305 304
293 293 294 294 294 294 293 293 293 292 292 292 292 292 292 292 291 291 291 291 291 291 292 292 292 292 292 292 292 292 292 293 293 293 293 293 294 294 294 294 294 294 294 294 294 295 295 295 296 296 297 297 298 298 299 299 301 302 304 305 305 306 306 307 308 309 308 307 306 306 306 305 303 302
293 293 294 294 294 294 293 293 293 292 292 291 291 291 291 291 291 291 291 291 291 291 291 291 291 291 291 292 292 292 292 292 292 293 293 293 293 293 293 293 293 293 293 294 294 294 294 295 295 296 296 297 297 298 298 299 300 301 303 303 304 304 305 306 308 308 307 306 305 305 304 303 302 300
293 293 293 294 294 293 293 293 292 292 291 291 291 291 291 291 291 291 290 290 290 291 290 291 290 290 290 291 291 291 291 292 292 292 292 292 292 292 293 292 293 293 293 293 293 293 294 294 295 295 296 296 297 297 297 298 299 300 301 301 302 304 305 305 307 308 307 305 304 303 302 300 299 298
293 293 293 293 293 293 292 292 292 291 291 291 291 290 290 290 290 290 290 290 290 290 290 290 290 290 290 290 290 290 290 291 291 291 291 291 292 292 292 292 292 293 293 293 293 293 293 294 294 295 295 296 296 297 297 297 298 299 300 300 302 303 304 305 305 306 306 303 302 302 301 298 296 295
293 293 293 293 293 292 292 291 291 291 291 290 290 290 290 290 290 290 290 290 290 290 290 290 289 290 290 289 289 290 290 290 290 290 291 291 291 291 292 292 292 293 293 293 293 293 293 293 294 294 295 296 296 297 298 298 298 298 298 299 301 302 303 304 303 303 303 303 300 300 301 300 297 295
293 293 293 292 292 292 292 291 291 291 290 290 290 290 290 290 290 290 290 290 289 289 289 289 289 289 289 289 289 289 289 289 290 290 290 291 291 291 292 292 292 293 293 293 293 293 293 293 293 294 295 296 296 297 298 298 299 299 299 299 300 301 302 302 301 300 301 301 299 298 299 299 296 295
292 292 292 292 292 291 291 291 290 290 290 290 290 290 290 290 289 289 289 289 289 289 289 289 289 289 289 289 289 289 289 289 290 290 290 291 291 291 292 292 292 292 293 293 293 293 293 293 293 294 295 296 296 297 297 298 298 299 299 300 300 300 301 301 300 299 299 298 296 296 296 296 295 294
292 292 292 291 291 291 291 291 290 290 290 290 290 289 289 289 289 289 289 289 289 288 288 288 288 289 289 289 289 289 289 289 290 290 290 291 291 291 292 292 292 293 293 293 293 293 293 293 294 294 294 295 296 297 297 298 298 299 299 300 300 300 300 300 300 299 298 296 295 295 295 295 294 293
292 291 291 291 291 291 290 290 290 290 289 289 289 289 289 289 289 288 288 288 288 288 288 288 288 289 289 289 289 289 289 289 290 290 290 290 291 291 291 292 292 292 293 293 293 293 293 294 294 294 295 295 295 296 297 297 298 298 299 299 299 300 300 300 300 300 298 296 296 296 295 294 294 293
291 291 291 291 290 290 290 289 289 289 289 289 289 289 288 288 288 288 288 288 288 288 288 288 289 289 289 289 289 289 289 290 290 290 291 291 291 291 291 291 292 292 292 293 293 293 294 294 294 294 294 295 295 296 296 297 297 297 298 299 299 299 299 300 300 301 300 298 296 295 295 294 293 292
291 291 291 290 290 289 289 289 289 289 288 288 288 288 288 288 288 288 288 288 288 288 289 289 289 289 289 290 290 290 290 290 291 291 291 291 291 291 291 291 292 292 292 293 293 293 294 294 294 294 295 295 295 296 296 296 297 297 298 298 298 298 298 299 299 299 299 299 298 297 296 294 293 292
291 291 290 290 289 289 289 289 288 288 288 288 288 288 288 288 289 288 288 288 288 289 289 289 289 289 290 290 290 290 291 291 291 291 292 291 291 291 291 292 292 292 292 293 293 294 294 294 295 295 295 295 295 296 296 296 297 297 297 297 297 296 297 297 296 296 296 296 297 298 298 297 296 294
291 291 290 290 289 289 289 289 288 288 288 288 288 288 288 288 288 289 288 288 289 289 289 289 290 290 290 291 291 291 291 291 292 292 292 292 292 292 292 292 292 292 293 293 293 294 294 295 295 295 295 295 295 296 296 296 296 297 297 296 296 296 296 295 295 294 294 294 294 295 296 296 297 296
291 290 290 289 289 289 289 288 288 288 288 288 288 288 288 289 289 289 289 289 289 289 290 290 290 291 291 291 291 292 292 292 293 292 292 292 292 293 293 293 293 293 293 293 293 294 294 294 295 295 295 295 296 296 296 296 296 296 296 295 295 295 295 294 293 293 293 292 292 293 294 295 295 294
Wind_Speed
6 6 5 3 2 5 5 4 5 6 6 6 6 5 5 6 8 10 10 9 8 8 7 6 6 6 6 6 8 9 7 11 17 17 16 16 15 18 20 19 18 18 19 21 22 24 25 27 28 29 28 28 29 30 31 30 28 28 28 29 29 27 25 23 21 21 22 23 24 24 24 23 22 19
7 7 7 6 5 7 7 6 6 7 7 6 6 7 7 6 7 8 10 11 10 9 9 8 8 8 8 9 11 12 12 16 20 21 22 22 21 23 24 25 24 23 21 20 20 21 23 26 28 28 28 28 29 30 31 32 32 31 31 31 31 31 29 27 24 23 23 24 25 26 25 25 24 22
7 7 8 7 7 9 10 9 10 10 9 7 6 6 7 8 8 8 9 12 11 9 9 10 11 12 14 15 16 18 19 20 22 23 22 21 21 22 23 24 25 24 24 24 24 23 23 24 26 28 29 30 31 31 32 33 34 34 34 33 34 34 33 31 29 27 25 25 25 26 27 26 26 25
6 7 8 7 7 9 10 8 10 12 11 11 10 8 6 7 9 9 9 12 13 12 12 14 16 15 16 16 16 18 18 18 19 21 20 19 20 21 21 21 22 22 23 24 25 27 27 27 27 27 28 30 30 32 33 34 35 35 35 35 35 36 36 34 32 31 29 27 26 27 28 28 28 27
7 7 7 8 9 10 10 8 7 8 9 11 12 10 7 6 7 8 9 12 15 15 14 14 15 14 15 16 16 16 16 16 19 20 19 18 19 19 20 20 20 21 21 21 22 24 27 29 30 30 30 29 29 31 33 35 35 35 35 36 36 37 37 37 36 35 34 31 29 28 29 29 29 29
9 9 7 8 10 12 12 11 8 6 7 8 8 8 8 8 9 9 10 12 15 16 16 15 16 15 15 16 16 15 16 18 20 20 19 18 17 17 18 19 19 19 19 20 22 24 26 27 29 31 33 32 31 31 32 34 35 35 36 36 36 37 37 37 37 37 37 36 34 31 30 30 30 30
9 11 10 9 12 14 14 13 11 9 9 8 7 8 9 10 11 11 12 13 15 17 17 16 16 15 15 16 16 16 17 19 20 20 19 19 17 16 16 17 18 18 19 21 24 26 28 28 27 28 31 34 36 35 34 35 36 36 37 37 37 38 38 38 37 37 38 39 38 36 34 31 31 31
9 11 11 9 11 13 13 13 11 9 9 9 9 10 11 11 12 12 12 13 14 16 18 17 17 17 18 18 18 17 17 17 18 18 18 18 18 17 16 16 17 18 21 23 24 26 28 29 29 27 27 30 34 37 38 38 38 38 38 38 38 39 39 39 38 38 38 39 40 41 38 34 32 32
12 13 12 11 12 13 13 12 10 9 10 12 12 12 12 12 12 13 14 15 15 17 19 19 19 19 19 19 18 17 17 17 17 17 17 17 17 18 19 20 20 19 21 24 25 26 27 29 30 31 29 29 31 34 38 39 40 40 39 38 38 38 39 40 39 39 39 39 40 41 41 40 36 32
14 14 14 14 14 14 14 13 13 13 15 15 15 15 15 14 15 16 17 16 17 18 19 20 20 19 19 19 18 17 16 17 17 17 18 18 18 19 19 19 17 15 16 19 21 23 24 26 29 30 30 29 29 30 33 36 38 39 39 39 39 38 38 39 39 39 39 39 40 40 42 44 41 35
15 15 15 15 16 16 16 16 16 17 17 17 17 16 16 17 17 18 18 17 17 18 19 19 19 19 18 18 18 17 15 16 17 18 18 18 16 14 14 15 16 17 18 19 21 23 24 26 28 30 30 30 30 29 30 32 34 35 37 38 39 38 38 38 39 39 39 39 40 39 40 42 43 40
17 17 16 17 17 17 18 17 18 19 19 19 19 18 17 17 18 19 19 19 18 18 18 19 19 19 18 17 17 16 15 16 16 15 15 16 16 16 18 20 23 24 23 22 22 22 22 24 26 28 29 29 29 30 30 31 32 33 34 35 37 37 36 37 38 38 38 38 40 40 39 40 42 44
17 17 17 18 19 19 20 20 20 20 20 20 20 20 19 19 20 20 20 20 19 18 19 19 18 18 18 17 17 16 15 15 16 15 16 19 20 21 22 23 22 22 21 20 20 20 20 21 22 24 26 26 25 26 27 29 31 33 34 34 34 34 34 35 36 37 37 37 38 40 39 38 40 41
17 16 17 18 20 21 21 22 23 22 21 21 22 21 21 20 21 22 22 22 21 21 21 20 19 20 20 19 18 18 18 17 18 19 19 21 21 20 21 21 19 18 18 18 19 18 17 18 19 21 23 24 25 26 28 29 29 31 33 34 34 34 33 34 34 35 36 37 37 38 38 38 39 38
15 15 16 17 20 22 23 23 24 25 25 25 24 24 24 23 22 23 24 25 25 25 25 24 22 22 22 22 20 20 20 19 19 19 18 19 19 19 19 20 18 15 14 16 18 18 17 17 19 20 21 21 22 26 29 29 28 28 30 33 35 35 35 34 34 34 34 36 37 37 37 38 38 37
14 15 16 18 20 22 23 23 24 25 26 26 26 28 28 28 27 26 25 26 26 26 27 28 28 26 25 24 22 20 19 18 18 18 18 19 19 20 21 22 20 17 15 17 21 23 23 21 21 23 23 22 23 24 27 30 30 29 28 29 32 34 36 36 36 35 34 34 36 37 37 36 36 37
17 17 18 19 19 20 21 23 23 22 21 22 25 27 29 31 31 31 29 28 28 28 28 30 31 31 30 30 28 25 24 23 22 21 20 20 21 22 22 23 22 19 17 18 21 23 24 23 23 24 23 22 23 24 26 30 31 30 29 28 28 30 32 35 36 35 34 34 35 36 36 35 35 36
19 20 20 19 19 19 19 20 20 19 20 22 25 26 27 28 29 30 30 31 31 31 30 31 32 30 29 30 31 30 29 28 28 26 24 23 24 25 25 25 25 24 24 25 27 30 31 28 27 29 26 23 23 23 25 29 31 31 31 30 29 29 30 31 33 33 33 34 34 35 36 35 35 35
20 20 20 20 20 19 19 19 20 22 23 25 27 28 29 29 28 28 28 29 30 30 28 28 28 25 22 23 24 25 25 27 29 30 30 30 30 31 32 31 29 28 27 27 29 34 34 29 29 32 28 25 25 23 24 29 31 32 32 32 31 30 29 29 31 32 32 32 33 35 35 35 35 34
19 19 19 18 18 18 18 20 24 25 26 26 28 30 31 31 30 29 28 28 29 30 28 27 27 26 24 25 27 28 28 29 30 31 33 35 34 33 32 30 27 25 24 23 24 29 29 24 25 29 25 23 24 22 23 29 31 32 33 32 31 31 29 29 30 31 31 31 32 33 35 35 35 34
15 16 18 18 18 18 19 22 26 28 27 28 30 31 32 31 30 29 29 29 29 29 29 29 30 30 30 32 34 35 36 36 36 36 39 38 33 31 30 29 27 24 22 19 20 25 26 22 21 24 22 22 23 22 23 28 30 29 30 31 32 32 31 31 31 30 29 29 30 31 32 34 34 33
12 13 16 19 21 21 21 23 27 29 29 30 32 32 32 31 29 29 30 30 28 26 26 27 28 30 31 33 34 34 34 35 36 38 43 43 36 32 32 30 27 26 24 20 19 23 25 22 21 22 21 21 23 21 22 28 30 28 28 31 32 32 30 31 32 32 30 28 28 27 28 30 32 32
10 12 15 19 21 20 20 23 27 30 32 33 33 33 33 32 31 30 30 27 25 24 24 25 27 27 26 26 28 28 27 27 28 31 36 38 36 34 33 31 29 28 25 18 16 21 24 22 21 21 20 20 21 18 18 26 29 26 24 28 33 34 31 31 34 36 35 32 29 27 26 27 28 30
12 13 13 17 20 20 21 26 29 32 34 34 34 34 34 34 34 33 31 29 27 29 31 32 33 33 31 29 28 27 25 24 25 26 28 29 28 28 29 29 29 30 27 18 15 19 21 20 20 21 20 21 20 16 16 23 26 25 24 30 36 37 34 32 34 37 37 35 32 29 27 27 27 28
13 12 12 16 22 23 24 28 31 32 34 34 35 35 35 36 36 35 36 35 34 34 35 34 34 35 36 33 30 27 25 23 23 24 26 25 23 23 25 26 27 30 28 21 19 22 23 20 19 19 19 20 21 19 18 20 24 27 29 31 34 35 32 29 30 33 35 35 33 30 28 27 28 29
14 13 12 17 23 25 27 29 31 32 33 34 36 36 35 35 33 33 33 34 33 32 32 32 31 29 29 28 25 24 23 22 22 22 23 23 22 23 24 24 25 27 24 19 18 21 24 23 21 19 20 20 20 21 21 20 22 27 30 30 30 30 29 27 25 27 30 32 31 30 28 27 27 27
15 15 14 17 22 25 27 28 29 30 32 32 32 31 30 28 27 27 27 27 26 25 24 25 26 25 24 24 23 22 22 22 22 22 22 23 23 23 23 23 25 27 25 22 20 20 22 24 22 21 22 21 21 22 24 21 20 22 26 29 29 27 26 25 24 23 24 27 28 28 27 26 25 25
15 16 17 19 22 24 25 27 28 28 27 25 25 24 23 21 21 21 21 19 19 19 20 21 22 23 23 23 23 23 23 22 22 22 22 22 21 22 23 23 24 26 26 25 23 22 23 25 24 21 21 22 23 23 25 24 21 19 18 22 25 25 24 23 23 22 22 23 25 26 27 27 25 24
16 17 19 20 23 25 26 26 25 22 20 20 20 20 19 18 18 18 17 16 16 18 19 20 22 23 23 23 23 23 22 23 23 23 23 23 22 21 23 24 25 25 26 26 24 23 24 26 26 24 23 23 24 24 24 25 24 23 19 20 22 25 24 21 20 20 20 20 23 25 27 27 25 23
17 20 22 23 25 25 22 21 20 18 18 18 18 17 16 16 17 17 16 16 17 18 19 19 21 22 21 21 21 22 23 24 22 21 23 24 22 20 20 23 24 24 25 27 27 27 27 27 28 28 26 25 25 25 24 23 23 26 24 22 22 23 21 18 17 18 18 19 22 24 24 24 22 21
18 21 22 23 21 19 18 19 19 19 19 18 16 16 16 15 16 16 17 18 19 20 21 21 22 22 22 22 22 22 23 24 22 20 22 23 22 20 19 20 22 24 26 29 30 29 30 30 30 29 29 28 27 25 24 24 25 27 25 22 22 21 18 16 17 18 19 19 21 22 22 22 21 21
17 19 19 16 14 14 16 18 17 16 16 16 15 15 15 15 16 17 18 20 20 21 22 22 22 22 22 22 22 22 23 24 23 21 22 21 21 22 22 23 25 28 30 31 31 30 29 31 32 32 32 30 28 25 24 24 26 27 24 20 20 19 16 15 17 18 20 21 22 23 23 22 21 22
16 15 13 12 13 15 16 17 16 15 15 15 16 16 16 16 17 17 18 20 21 21 22 23 24 25 25 26 26 25 25 25 24 24 24 24 24 24 26 29 32 32 32 32 30 28 26 27 30 32 34 34 32 29 28 27 27 26 22 19 19 20 20 19 17 18 19 22 24 24 23 22 23 24
13 11 11 13 15 16 16 16 16 15 15 16 17 17 17 17 18 18 19 20 20 22 23 25 26 28 29 29 29 27 27 26 25 25 26 27 28 29 31 34 35 34 32 31 30 28 26 26 27 28 31 34 35 35 34 32 31 28 23 20 20 21 22 21 20 18 19 21 24 26 25 23 22 22
12 11 13 15 15 15 15 15 15 15 15 16 17 18 18 18 18 19 20 20 20 22 24 26 27 28 29 30 30 29 29 29 28 28 28 29 30 31 32 34 35 34 32 31 30 29 28 27 26 26 27 29 32 33 33 33 35 33 26 21 19 21 21 21 21 20 19 20 24 25 25 24 21 20
13 13 15 16 15 15 15 14 14 15 15 16 17 19 19 19 20 20 20 20 22 23 25 27 28 29 30 30 31 31 30 30 30 30 30 31 31 31 31 32 34 33 32 30 29 28 28 27 27 27 26 27 28 29 28 28 32 34 30 24 20 18 19 21 21 20 19 21 23 24 25 26 24 22
13 15 16 16 15 15 15 15 15 16 16 17 18 19 20 20 21 21 21 21 23 24 25 26 27 28 29 29 30 30 30 30 30 30 30 29 29 29 30 31 32 32 32 31 29 27 27 27 28 27 27 27 27 27 24 23 24 27 28 27 24 20 19 21 22 21 20 21 22 23 25 27 27 25
14 16 16 15 15 15 15 15 15 16 17 18 19 19 20 20 21 22 23 23 24 25 25 25 25 26 26 27 28 29 29 29 29 29 29 29 28 28 29 30 30 31 30 29 28 27 27 28 28 28 28 28 28 26 22 21 22 21 22 25 26 24 21 21 22 22 21 21 23 24 25 28 28 25
15 16 15 15 15 15 15 15 16 16 18 18 19 20 20 21 23 25 25 26 26 25 25 25 25 26 27 27 27 28 28 29 29 29 29 29 29 29 29 29 29 29 29 28 27 26 26 27 28 28 28 29 28 25 20 18 19 18 18 21 24 25 23 21 22 22 22 24 26 28 29 29 26 23
15 15 14 15 15 16 16 16 16 17 18 19 20 20 20 21 24 26 27 27 27 27 26 26 26 26 26 26 26 26 27 27 28 28 28 28 29 29 29 29 28 27 27 26 25 24 24 26 27 27 27 26 26 25 21 17 15 16 18 20 21 22 22 21 21 22 24 27 30 31 31 30 27 26
14 14 14 14 15 16 16 17 17 18 20 21 21 20 20 21 24 26 28 28 28 28 28 27 26 26 26 25 24 24 26 27 27 27 27 27 27 27 28 29 29 27 26 25 25 24 24 23 22 24 25 24 23 24 24 20 16 16 20 22 21 19 18 17 17 19 21 25 30 32 32 30 30 31
14 13 13 14 15 15 16 16 18 19 21 21 20 20 21 24 26 28 28 28 28 28 28 26 26 26 26 24 23 23 24 25 24 24 24 25 25 25 25 26 27 27 27 26 24 22 21 19 17 19 22 23 22 22 21 20 18 19 21 23 23 21 19 17 17 19 20 23 27 29 30 31 33 34
13 12 13 13 14 15 16 18 20 21 22 22 22 21 23 26 28 29 29 30 29 29 28 27 26 25 25 23 22 22 22 23 23 22 22 22 22 23 23 23 24 24 24 24 22 19 18 16 15 15 18 20 20 20 20 19 20 21 23 25 25 24 22 20 20 22 23 25 26 27 29 31 33 35
12 12 12 13 14 16 18 21 24 25 25 25 25 24 25 27 29 30 31 31 30 30 29 27 25 23 22 22 21 21 20 20 21 20 20 19 18 18 19 20 20 19 19 19 18 16 15 16 16 15 16 16 17 19 21 22 22 23 25 26 26 27 25 24 23 23 25 26 27 27 28 29 27 27
11 12 13 14 15 18 21 23 25 26 26 26 26 26 26 28 30 31 32 32 31 30 29 26 24 23 22 20 19 18 16 16 16 15 14 12 12 12 13 14 16 16 16 16 17 17 17 17 18 17 16 15 16 19 22 23 23 25 26 27 27 27 27 26 27 28 28 27 26 25 25 23 21 22
Wind_Direction
19 17 25 47 5 349 4 352 335 339 334 330 324 311 295 293 306 313 313 312 309 307 308 302 302 309 308 302 282 269 276 281 277 278 277 271 268 271 270 264 260 257 256 257 257 256 254 249 245 244 245 247 248 249 251 252 253 254 255 255 255 254 252 253 256 256 252 248 244 241 241 240 240 241
7 6 8 10 1 353 351 344 342 341 337 340 338 325 317 302 293 299 302 303 304 305 304 295 296 302 294 288 284 275 269 271 273 276 277 277 274 272 272 270 267 264 260 260 261 259 254 249 247 247 247 248 249 250 251 252 254 254 253 254 255 254 253 251 252 255 255 251 245 241 241 241 241 242
358 359 1 3 358 354 353 349 345 345 342 340 337 318 308 303 295 290 291 292 292 297 299 286 281 283 280 279 281 279 279 281 282 282 282 283 281 277 277 277 276 273 266 262 260 259 256 253 250 249 249 250 251 252 253 253 255 256 255 255 256 256 255 253 251 252 254 253 249 243 240 241 241 242
343 346 349 352 353 354 357 350 340 342 342 341 342 330 300 291 293 291 286 282 282 286 288 285 285 287 285 284 285 285 288 288 285 287 289 288 285 282 281 282 282 280 276 270 263 259 256 254 253 252 251 251 252 253 253 254 255 256 256 257 257 257 257 256 253 251 251 252 251 246 242 240 241 242
326 336 338 332 335 345 350 348 339 330 326 330 337 333 314 293 286 285 282 281 285 288 286 284 288 289 286 287 288 289 288 284 283 288 292 291 289 288 287 283 280 280 282 282 277 267 258 253 251 252 253 254 254 253 252 253 254 255 256 257 258 258 258 258 256 253 250 249 248 248 245 242 241 241
310 322 326 315 319 331 337 342 344 323 306 309 309 301 294 286 281 279 277 278 282 285 286 286 288 289 288 287 288 287 284 283 287 291 293 293 291 287 284 282 279 277 275 274 273 272 269 263 256 252 252 254 255 255 253 251 251 253 255 257 258 259 259 258 258 257 254 250 247 246 246 245 243 240
286 305 317 312 313 325 332 336 339 329 318 316 303 289 288 287 286 283 280 282 285 286 289 292 292 291 289 287 288 287 286 287 290 293 294 295 294 287 280 279 280 279 275 271 268 269 271 272 267 260 254 253 253 254 254 252 252 252 254 256 258 259 260 259 259 258 257 255 252 247 244 245 245 242
268 286 300 301 304 316 324 327 331 324 312 311 303 296 296 296 295 292 288 287 288 288 290 293 292 291 290 292 292 290 289 288 287 288 289 290 291 289 282 277 276 272 270 269 267 267 269 272 274 272 264 257 253 253 252 252 253 253 253 255 256 258 259 260 260 259 258 257 256 252 247 244 245 244
271 279 288 290 295 306 313 316 315 303 295 298 300 298 295 292 288 285 282 282 283 284 286 288 291 292 292 292 290 289 289 287 283 282 281 281 283 283 280 282 282 274 266 265 265 266 269 272 274 274 271 265 258 255 253 252 252 253 254 255 256 258 258 259 259 260 260 258 256 256 252 246 242 243
275 280 285 288 293 301 305 305 304 302 302 304 305 302 299 296 291 287 286 286 285 283 284 286 288 289 290 289 289 288 287 285 283 283 281 280 280 281 284 290 294 289 276 270 269 270 271 271 272 273 272 269 265 261 257 254 252 253 254 256 257 258 258 259 259 259 260 260 258 256 255 251 244 240
274 281 284 286 291 296 298 301 304 306 308 308 307 305 302 299 297 294 292 290 285 283 283 285 286 286 286 286 286 286 284 282 281 282 284 285 284 281 279 278 278 280 278 274 271 271 271 273 276 277 275 272 270 267 261 257 255 254 255 256 256 256 257 258 259 259 258 260 259 256 254 255 251 245
272 279 283 286 290 293 296 301 304 306 308 308 307 305 300 297 294 293 293 291 288 285 284 283 284 285 284 283 283 284 283 281 280 280 281 282 281 278 276 277 279 282 282 280 278 273 270 271 275 277 279 277 275 272 266 258 254 254 256 257 256 255 255 256 258 259 259 259 260 259 255 254 254 250
271 278 281 285 288 292 297 301 303 306 308 307 307 305 301 298 295 293 291 290 287 285 284 283 284 284 283 282 283 282 280 278 279 279 277 278 281 283 282 282 283 285 285 283 280 274 269 266 265 268 274 277 277 275 270 264 258 254 255 256 256 255 254 255 256 258 259 259 260 261 259 255 253 252
268 275 278 284 287 291 296 299 302 306 307 305 304 303 300 297 295 293 291 289 286 284 282 281 282 282 280 279 279 279 279 279 278 279 279 280 282 285 284 283 284 286 287 286 283 279 272 267 265 264 266 271 274 272 270 268 265 260 256 255 255 254 253 253 254 255 256 257 259 261 261 258 254 250
262 270 276 283 289 294 299 301 304 306 306 305 304 302 301 299 296 294 291 289 287 285 282 280 278 278 278 278 279 279 281 281 280 279 280 280 282 282 283 284 285 284 283 281 278 274 267 263 264 264 262 263 266 268 268 267 265 264 261 255 252 251 251 251 252 252 253 254 256 258 259 259 255 249
254 264 275 283 290 296 300 302 305 308 309 309 307 306 305 303 301 299 295 291 289 287 284 280 277 274 274 275 276 277 280 281 280 279 276 275 277 278 278 279 280 280 281 281 279 275 269 265 265 265 264 261 258 259 263 264 263 266 267 262 255 251 251 251 252 252 251 252 253 255 256 256 254 249
257 266 276 284 289 294 298 302 305 306 305 304 304 304 305 305 305 304 301 297 294 291 287 282 280 278 274 271 269 268 268 269 272 276 277 277 277 277 276 276 276 275 272 275 280 279 274 270 269 268 266 264 260 258 260 262 263 266 268 267 262 257 253 252 252 251 251 251 251 253 253 253 251 248
266 272 277 281 284 288 293 296 295 292 293 296 298 300 302 302 302 300 299 298 296 294 291 286 284 282 276 272 270 267 264 263 264 267 270 271 269 268 267 268 270 271 267 267 272 273 272 273 273 271 268 265 261 258 260 262 262 263 264 263 263 262 258 254 251 251 251 250 250 251 252 251 249 247
271 276 280 284 289 293 293 289 285 287 294 298 299 299 299 298 296 292 290 289 289 290 289 287 287 285 279 274 272 268 265 264 262 261 261 259 259 261 264 266 270 272 271 269 269 270 272 274 273 272 271 268 264 260 259 261 260 259 261 262 262 261 259 256 252 250 250 249 248 249 250 250 249 247
276 281 285 289 291 291 288 284 285 292 298 301 301 302 302 301 297 291 287 285 283 282 280 278 279 277 273 269 267 266 265 265 265 265 263 261 262 266 270 272 273 273 272 269 265 267 271 271 270 272 272 269 267 262 258 259 260 259 260 263 262 260 258 256 252 249 248 248 247 247 248 249 249 248
278 283 287 288 286 285 285 285 289 296 300 303 304 304 303 301 295 291 290 287 284 281 279 280 280 277 273 270 268 266 264 264 265 265 265 264 265 269 271 271 271 271 269 264 261 265 269 268 268 271 273 268 265 261 257 259 260 259 258 259 260 259 257 255 251 247 247 246 245 245 246 247 248 247
273 277 282 286 288 289 289 287 291 297 301 303 303 303 301 298 292 291 290 288 284 280 280 282 284 282 278 276 274 271 268 265 262 260 261 263 264 264 265 267 270 271 267 261 258 261 265 267 268 270 273 271 266 260 256 258 260 259 255 254 254 254 252 252 250 248 246 245 244 244 245 247 248 247
266 271 279 286 290 291 288 285 289 294 297 299 300 299 297 294 291 291 290 286 283 278 272 270 270 272 274 276 278 279 277 273 267 260 259 260 260 259 260 262 265 268 267 261 255 259 264 267 267 267 271 273 269 261 254 255 256 253 248 248 250 250 249 251 252 251 248 246 245 245 246 247 248 248
271 277 283 286 284 283 282 283 287 291 294 296 296 294 293 291 290 289 286 281 278 274 271 268 265 264 264 266 268 270 271 272 271 270 268 264 258 256 257 258 258 260 262 258 245 250 262 269 267 264 264 267 269 268 258 251 245 239 240 247 253 257 259 258 255 252 248 245 244 245 246 248 248 247
279 283 287 284 280 280 281 283 287 290 292 293 292 291 291 291 289 287 283 281 278 275 273 273 271 269 268 268 268 268 267 265 264 266 269 268 260 253 253 255 255 256 260 258 244 242 253 266 270 267 263 262 265 267 264 256 247 243 247 252 256 263 270 267 257 249 243 240 241 242 243 245 245 245
284 284 285 281 280 282 284 287 289 290 290 290 290 290 291 289 287 284 281 280 278 276 275 275 274 274 273 272 269 267 266 265 262 258 258 259 257 254 253 253 255 256 259 260 252 249 255 263 267 266 264 263 263 263 264 265 261 258 259 261 260 265 272 273 263 249 240 237 238 237 235 236 238 239
289 288 284 278 278 282 285 287 287 286 286 286 286 286 287 287 287 286 284 281 279 278 277 276 273 272 272 270 268 266 264 264 264 261 259 256 255 255 255 254 256 258 260 260 257 255 257 260 260 259 260 261 263 264 263 265 269 266 261 261 262 263 267 271 267 254 243 238 236 232 227 226 227 228
291 288 285 283 286 290 291 290 290 290 290 290 290 292 294 296 296 293 288 282 279 277 276 275 273 271 270 268 267 266 266 265 264 261 259 258 256 255 255 256 257 258 259 259 257 255 255 255 255 255 257 257 259 262 262 263 273 277 259 250 256 262 265 268 264 255 247 239 233 228 224 220 218 215
291 293 296 300 302 301 301 302 303 301 299 300 302 305 308 308 307 301 289 280 278 276 274 274 273 272 271 269 268 268 268 267 263 259 256 255 255 253 252 252 253 254 254 252 251 252 253 253 253 253 253 253 254 259 261 262 272 279 261 242 251 261 263 264 260 252 245 236 227 225 223 219 215 208
306 310 311 310 309 309 312 315 313 308 307 310 311 312 314 312 308 303 292 282 280 278 276 276 276 275 273 272 270 270 270 268 263 259 257 257 257 254 252 253 253 252 253 252 251 251 251 251 251 248 248 250 251 253 257 258 266 273 263 244 247 257 258 257 253 245 240 232 222 219 218 215 211 204
311 311 309 308 310 317 322 321 317 313 315 316 313 310 309 304 298 294 288 283 281 281 279 278 278 278 277 275 272 269 268 267 263 260 260 259 257 254 252 253 252 252 256 258 258 257 252 248 247 243 243 247 249 250 253 253 257 268 265 246 245 253 252 249 246 237 231 225 217 213 211 209 204 198
307 307 309 314 319 321 317 313 311 309 308 306 303 301 300 296 292 290 287 285 283 282 280 279 278 277 275 273 272 269 268 266 263 261 260 258 256 252 250 251 254 257 261 264 265 265 258 251 247 242 239 242 244 247 251 249 251 262 263 247 243 251 249 243 244 239 227 218 212 209 207 204 199 195
316 319 327 328 320 314 309 306 304 303 302 301 300 300 298 297 294 291 288 286 284 283 282 280 277 275 272 271 271 270 268 265 263 261 259 257 257 255 253 255 260 262 265 267 267 266 262 255 250 244 239 239 239 241 245 245 245 254 261 255 253 260 255 242 238 240 232 218 209 205 201 198 196 194
333 338 336 325 315 311 310 307 304 304 303 302 301 300 297 294 293 290 288 287 284 282 281 278 277 277 276 276 275 272 270 268 266 264 262 261 261 260 258 261 264 266 266 265 263 260 255 252 250 248 244 242 241 242 244 244 244 251 261 265 262 262 256 242 231 235 236 223 211 203 193 185 185 187
3 349 326 319 315 311 308 307 304 304 303 301 301 301 299 297 296 292 289 287 285 282 280 279 279 279 279 277 277 275 274 274 272 269 268 268 267 264 262 262 263 264 262 260 259 257 254 249 245 245 247 247 246 247 247 244 242 246 254 259 255 250 248 241 231 228 228 221 213 206 193 179 173 176
4 342 321 317 316 310 308 308 306 304 304 301 301 301 300 298 297 294 290 288 286 283 281 280 279 280 280 279 279 278 277 276 274 271 271 272 270 267 263 260 260 261 259 257 256 254 253 249 242 240 245 247 247 248 248 242 239 242 245 246 246 246 245 238 226 220 220 216 210 206 198 186 177 178
343 328 321 318 316 312 309 308 305 303 303 303 302 301 298 296 295 295 293 291 290 290 289 287 284 283 282 280 280 280 279 278 277 275 275 274 270 266 262 259 259 259 258 258 256 251 247 246 243 238 238 241 242 243 244 241 241 242 241 239 239 244 248 237 217 206 209 210 204 201 195 185 176 179
330 323 323 319 316 314 310 306 305 304 304 304 302 299 297 295 296 299 301 300 301 301 298 294 290 288 286 283 281 279 277 277 276 275 274 271 267 264 262 261 259 259 259 260 260 253 246 244 242 235 232 234 237 239 240 243 245 243 239 238 238 240 242 233 212 200 199 198 192 187 185 181 176 176
323 321 322 319 316 315 310 306 306 304 303 304 302 300 298 298 301 307 311 310 309 308 303 298 296 294 292 288 284 280 278 276 274 272 270 267 265 264 264 262 260 259 259 258 258 254 247 241 238 234 229 230 234 234 234 241 248 244 235 236 239 240 236 226 211 202 197 190 185 181 179 177 172 164
322 322 322 320 319 317 312 310 309 307 305 305 303 301 300 302 306 312 315 314 314 313 311 308 304 300 297 292 286 283 280 279 279 278 275 270 267 264 263 262 261 260 256 251 250 248 244 240 237 233 230 232 236 235 232 237 249 246 232 225 229 235 236 231 222 213 202 192 188 184 178 174 167 158
327 324 324 324 321 318 317 315 314 312 310 307 306 305 305 308 312 316 317 318 318 318 317 313 309 306 304 300 295 291 286 283 284 283 279 275 271 266 260 258 258 257 251 246 245 244 245 246 241 233 230 233 236 234 234 238 243 236 222 214 210 213 221 229 234 232 221 205 193 184 177 173 167 161
329 327 327 327 324 322 322 322 322 321 316 311 310 311 313 318 322 323 322 321 322 322 322 319 316 312 310 307 304 300 294 290 288 285 281 278 275 269 263 257 254 251 247 245 244 244 246 248 242 230 227 229 229 229 230 232 230 220 208 201 195 192 198 209 219 224 222 213 203 193 182 173 166 163
330 330 328 328 328 329 329 331 333 331 324 319 318 319 320 324 327 328 327 326 326 327 326 324 320 316 312 310 308 304 299 294 291 288 284 280 273 267 262 257 252 248 245 244 244 244 242 240 234 224 219 220 222 223 222 221 219 211 200 191 184 182 187 194 199 202 203 201 203 204 198 186 179 176
331 333 331 331 334 335 334 336 339 337 332 328 328 327 327 328 330 332 332 331 330 331 330 327 324 321 318 316 312 306 301 297 293 289 284 277 269 262 258 253 250 247 245 242 239 234 230 230 226 219 215 217 219 217 214 210 205 198 192 187 182 179 181 183 186 189 191 192 195 199 197 193 192 187
333 333 334 335 338 338 337 338 340 341 339 337 335 335 336 336 335 336 335 334 334 335 334 331 328 325 323 319 312 305 302 299 292 284 276 269 263 259 255 248 244 243 241 236 229 225 226 229 227 225 227 228 218 210 208 206 200 190 184 181 178 176 175 176 177 178 178 179 184 190 191 188 186 177